Time,TemperatureF,DewpointF,PressureIn,WindDirection,WindDirectionDegrees,WindSpeedMPH,WindSpeedGustMPH,Humidity,HourlyPrecipIn,Conditions,Clouds,dailyrainin,SoftwareType,DateUTC
2013-02-16 00:02:00,12.0,4.0,30.20,West,281,0.0,0.0,68,0.00,,,0.00,,2013-02-16 06:02:00,
2013-02-16 00:11:00,12.0,4.0,30.20,West,281,0.0,0.0,68,0.00,,,0.00,,2013-02-16 06:11:00,
2013-02-16 00:21:00,11.0,3.0,30.20,West,275,0.0,1.0,68,0.00,,,0.00,,2013-02-16 06:21:00,
2013-02-16 00:32:00,11.0,3.0,30.20,West,275,0.0,1.0,68,0.00,,,0.00,,2013-02-16 06:32:00,
2013-02-16 00:42:00,11.0,3.0,30.20,West,275,0.0,1.0,68,0.00,,,0.00,,2013-02-16 06:42:00,
2013-02-16 00:52:00,11.0,3.0,30.20,West,261,0.0,1.0,69,0.00,,,0.00,,2013-02-16 06:52:00,
2013-02-16 01:02:00,11.0,3.0,30.19,West,261,0.0,0.0,69,0.00,,,0.00,,2013-02-16 07:02:00,
2013-02-16 01:11:00,11.0,3.0,30.19,West,261,0.0,0.0,69,0.00,,,0.00,,2013-02-16 07:11:00,
2013-02-16 01:21:00,11.0,3.0,30.19,West,261,0.0,0.0,70,0.00,,,0.00,,2013-02-16 07:21:00,
2013-02-16 01:31:00,11.0,3.0,30.19,West,261,0.0,0.0,70,0.00,,,0.00,,2013-02-16 07:31:00,
2013-02-16 01:42:00,11.0,3.0,30.19,West,261,0.0,0.0,70,0.00,,,0.00,,2013-02-16 07:42:00,
2013-02-16 01:52:00,11.0,3.0,30.19,West,261,0.0,0.0,70,0.00,,,0.00,,2013-02-16 07:52:00,
2013-02-16 02:01:00,11.0,3.0,30.19,West,261,0.0,0.0,70,0.00,,,0.00,,2013-02-16 08:01:00,
2013-02-16 02:11:00,11.0,3.0,30.19,West,261,0.0,0.0,70,0.00,,,0.00,,2013-02-16 08:11:00,
2013-02-16 02:21:00,10.0,3.0,30.19,West,261,0.0,0.0,71,0.00,,,0.00,,2013-02-16 08:21:00,
2013-02-16 02:31:00,10.0,2.0,30.19,West,267,0.0,0.0,70,0.00,,,0.00,,2013-02-16 08:31:00,
2013-02-16 02:41:00,10.0,2.0,30.19,West,267,0.0,0.0,70,0.00,,,0.00,,2013-02-16 08:41:00,
2013-02-16 02:52:00,10.0,2.0,30.19,West,267,0.0,0.0,70,0.00,,,0.00,,2013-02-16 08:52:00,
2013-02-16 03:01:00,10.0,2.0,30.19,West,267,0.0,1.0,70,0.00,,,0.00,,2013-02-16 09:01:00,
2013-02-16 03:11:00,10.0,2.0,30.19,West,267,0.0,1.0,70,0.00,,,0.00,,2013-02-16 09:11:00,
2013-02-16 03:21:00,9.0,2.0,30.18,West,267,0.0,1.0,72,0.00,,,0.00,,2013-02-16 09:21:00,
2013-02-16 03:31:00,9.0,2.0,30.18,West,267,0.0,1.0,72,0.00,,,0.00,,2013-02-16 09:31:00,
2013-02-16 03:42:00,9.0,2.0,30.18,West,267,0.0,1.0,72,0.00,,,0.00,,2013-02-16 09:42:00,
2013-02-16 03:52:00,8.0,1.0,30.18,West,267,0.0,0.0,73,0.00,,,0.00,,2013-02-16 09:52:00,
2013-02-16 04:01:00,7.0,0.0,30.18,West,267,0.0,0.0,73,0.00,,,0.00,,2013-02-16 10:01:00,
2013-02-16 04:11:00,7.0,0.0,30.18,West,267,0.0,0.0,73,0.00,,,0.00,,2013-02-16 10:11:00,
2013-02-16 04:21:00,7.0,0.0,30.18,West,267,0.0,0.0,74,0.00,,,0.00,,2013-02-16 10:21:00,
2013-02-16 04:31:00,5.0,-1.0,30.18,West,267,0.0,1.0,77,0.00,,,0.00,,2013-02-16 10:31:00,
2013-02-16 04:41:00,5.0,-1.0,30.18,West,267,0.0,1.0,77,0.00,,,0.00,,2013-02-16 10:41:00,
2013-02-16 04:51:00,5.0,-1.0,30.18,West,267,0.0,0.0,76,0.00,,,0.00,,2013-02-16 10:51:00,
2013-02-16 05:02:00,4.0,-2.0,30.18,West,267,0.0,0.0,76,0.00,,,0.00,,2013-02-16 11:02:00,
2013-02-16 05:11:00,4.0,-2.0,30.18,West,267,0.0,0.0,76,0.00,,,0.00,,2013-02-16 11:11:00,
2013-02-16 05:22:00,4.0,-2.0,30.18,West,267,0.0,0.0,77,0.00,,,0.00,,2013-02-16 11:22:00,
2013-02-16 05:32:00,3.0,-2.0,30.18,West,267,0.0,0.0,78,0.00,,,0.00,,2013-02-16 11:32:00,
2013-02-16 05:42:00,3.0,-2.0,30.18,West,267,0.0,0.0,78,0.00,,,0.00,,2013-02-16 11:42:00,
2013-02-16 05:52:00,3.0,-2.0,30.18,West,267,0.0,0.0,78,0.00,,,0.00,,2013-02-16 11:52:00,
2013-02-16 06:01:00,3.0,-2.0,30.18,West,267,0.0,0.0,79,0.00,,,0.00,,2013-02-16 12:01:00,
2013-02-16 06:12:00,3.0,-2.0,30.18,West,267,0.0,0.0,79,0.00,,,0.00,,2013-02-16 12:12:00,
2013-02-16 06:22:00,3.0,-2.0,30.18,West,267,0.0,0.0,79,0.00,,,0.00,,2013-02-16 12:22:00,
2013-02-16 06:32:00,3.0,-2.0,30.18,West,267,0.0,0.0,79,0.00,,,0.00,,2013-02-16 12:32:00,
2013-02-16 06:42:00,3.0,-2.0,30.18,West,267,0.0,0.0,79,0.00,,,0.00,,2013-02-16 12:42:00,
2013-02-16 06:52:00,3.0,-2.0,30.18,West,267,0.0,0.0,79,0.00,,,0.00,,2013-02-16 12:52:00,
2013-02-16 07:02:00,3.0,-2.0,30.19,West,267,0.0,0.0,79,0.00,,,0.00,,2013-02-16 13:02:00,
2013-02-16 07:11:00,3.0,-2.0,30.19,West,267,0.0,0.0,79,0.00,,,0.00,,2013-02-16 13:11:00,
2013-02-16 07:21:00,3.0,-2.0,30.19,West,267,0.0,0.0,79,0.00,,,0.00,,2013-02-16 13:21:00,
2013-02-16 07:31:00,3.0,-2.0,30.19,West,267,0.0,0.0,79,0.00,,,0.00,,2013-02-16 13:31:00,
2013-02-16 07:41:00,3.0,-2.0,30.19,West,267,0.0,0.0,79,0.00,,,0.00,,2013-02-16 13:41:00,
2013-02-16 07:51:00,4.0,-1.0,30.19,West,267,0.0,1.0,80,0.00,,,0.00,,2013-02-16 13:51:00,
2013-02-16 08:01:00,4.0,-1.0,30.19,West,267,0.0,1.0,80,0.00,,,0.00,,2013-02-16 14:01:00,
2013-02-16 08:11:00,4.0,-1.0,30.19,West,267,0.0,1.0,80,0.00,,,0.00,,2013-02-16 14:11:00,
2013-02-16 08:21:00,4.0,-1.0,30.20,WSW,247,0.0,2.0,78,0.00,,,0.00,,2013-02-16 14:21:00,
2013-02-16 08:32:00,4.0,-2.0,30.20,WSW,247,0.0,1.0,77,0.00,,,0.00,,2013-02-16 14:32:00,
2013-02-16 08:42:00,4.0,-2.0,30.20,WSW,247,0.0,1.0,77,0.00,,,0.00,,2013-02-16 14:42:00,
2013-02-16 08:52:00,4.0,-2.0,30.20,WSW,247,0.0,2.0,77,0.00,,,0.00,,2013-02-16 14:52:00,
2013-02-16 09:01:00,5.0,-1.0,30.20,West,261,0.0,1.0,76,0.00,,,0.00,,2013-02-16 15:01:00,
2013-02-16 09:11:00,5.0,-1.0,30.20,West,261,0.0,1.0,76,0.00,,,0.00,,2013-02-16 15:11:00,
2013-02-16 09:21:00,6.0,0.0,30.20,West,261,0.0,1.0,75,0.00,,,0.00,,2013-02-16 15:21:00,
2013-02-16 09:32:00,6.0,0.0,30.20,West,259,0.0,2.0,74,0.00,,,0.00,,2013-02-16 15:32:00,
2013-02-16 09:41:00,6.0,0.0,30.20,West,259,0.0,2.0,74,0.00,,,0.00,,2013-02-16 15:41:00,
2013-02-16 09:51:00,7.0,0.0,30.20,West,277,0.0,2.0,73,0.00,,,0.00,,2013-02-16 15:51:00,
2013-02-16 10:01:00,7.0,0.0,30.20,West,277,0.0,0.0,73,0.00,,,0.00,,2013-02-16 16:01:00,
2013-02-16 10:11:00,7.0,0.0,30.20,West,277,0.0,0.0,73,0.00,,,0.00,,2013-02-16 16:11:00,
2013-02-16 10:21:00,9.0,2.0,30.19,North,349,0.0,0.0,71,0.00,,,0.00,,2013-02-16 16:21:00,
2013-02-16 10:32:00,10.0,3.0,30.19,WNW,285,0.0,2.0,71,0.00,,,0.00,,2013-02-16 16:32:00,
2013-02-16 10:41:00,10.0,3.0,30.19,WNW,285,0.0,2.0,71,0.00,,,0.00,,2013-02-16 16:41:00,
2013-02-16 10:52:00,10.0,2.0,30.19,NNW,334,0.0,1.0,69,0.00,,,0.00,,2013-02-16 16:52:00,
2013-02-16 11:01:00,11.0,3.0,30.19,North,351,0.0,2.0,68,0.00,,,0.00,,2013-02-16 17:01:00,
2013-02-16 11:11:00,11.0,3.0,30.19,North,351,0.0,2.0,68,0.00,,,0.00,,2013-02-16 17:11:00,
2013-02-16 11:21:00,12.0,3.0,30.19,West,262,1.0,3.0,65,0.00,,,0.00,,2013-02-16 17:21:00,
2013-02-16 11:32:00,13.0,2.0,30.19,WNW,287,1.0,3.0,62,0.00,,,0.00,,2013-02-16 17:32:00,
2013-02-16 11:41:00,13.0,2.0,30.19,WNW,287,1.0,3.0,62,0.00,,,0.00,,2013-02-16 17:41:00,
2013-02-16 11:52:00,13.0,2.0,30.19,NNW,328,0.0,3.0,60,0.00,,,0.00,,2013-02-16 17:52:00,
2013-02-16 12:02:00,14.0,1.0,30.19,ENE,57,1.0,3.0,55,0.00,,,0.00,,2013-02-16 18:02:00,
2013-02-16 12:11:00,14.0,1.0,30.18,NNE,13,0.0,3.0,56,0.00,,,0.00,,2013-02-16 18:11:00,
2013-02-16 12:21:00,14.0,1.0,30.18,NNE,13,0.0,3.0,56,0.00,,,0.00,,2013-02-16 18:21:00,
2013-02-16 12:33:00,15.0,3.0,30.17,NNE,33,2.0,5.0,57,0.00,,,0.00,,2013-02-16 18:33:00,
2013-02-16 12:42:00,15.0,3.0,30.17,NNE,33,2.0,5.0,57,0.00,,,0.00,,2013-02-16 18:42:00,
2013-02-16 12:51:00,15.0,2.0,30.17,North,355,0.0,6.0,55,0.00,,,0.00,,2013-02-16 18:51:00,
2013-02-16 13:02:00,14.0,1.0,30.17,NE,36,0.0,5.0,56,0.00,,,0.00,,2013-02-16 19:02:00,
2013-02-16 13:11:00,14.0,1.0,30.17,NE,36,0.0,5.0,56,0.00,,,0.00,,2013-02-16 19:11:00,
2013-02-16 13:21:00,14.0,1.0,30.17,NE,36,0.0,5.0,56,0.00,,,0.00,,2013-02-16 19:21:00,
2013-02-16 13:31:00,15.0,1.0,30.16,NE,53,1.0,3.0,54,0.00,,,0.00,,2013-02-16 19:31:00,
2013-02-16 13:42:00,15.0,1.0,30.16,NE,53,1.0,3.0,54,0.00,,,0.00,,2013-02-16 19:42:00,
2013-02-16 13:52:00,15.0,2.0,30.16,NW,306,0.0,2.0,55,0.00,,,0.00,,2013-02-16 19:52:00,
2013-02-16 14:01:00,15.0,3.0,30.16,North,4,1.0,3.0,57,0.00,,,0.00,,2013-02-16 20:01:00,
2013-02-16 14:11:00,15.0,3.0,30.16,NNE,28,0.0,3.0,58,0.00,,,0.00,,2013-02-16 20:11:00,
2013-02-16 14:21:00,15.0,3.0,30.16,NNE,28,0.0,3.0,58,0.00,,,0.00,,2013-02-16 20:21:00,
2013-02-16 14:32:00,15.0,3.0,30.16,NNE,28,0.0,3.0,58,0.00,,,0.00,,2013-02-16 20:32:00,
2013-02-16 14:42:00,15.0,3.0,30.16,NNE,28,0.0,3.0,58,0.00,,,0.00,,2013-02-16 20:42:00,
2013-02-16 14:52:00,15.0,3.0,30.15,North,9,0.0,2.0,57,0.00,,,0.00,,2013-02-16 20:52:00,
2013-02-16 15:02:00,15.0,2.0,30.15,WSW,253,0.0,1.0,55,0.00,,,0.00,,2013-02-16 21:02:00,
2013-02-16 15:11:00,15.0,2.0,30.15,WSW,253,0.0,1.0,55,0.00,,,0.00,,2013-02-16 21:11:00,
2013-02-16 15:21:00,15.0,1.0,30.15,NNW,340,0.0,2.0,54,0.00,,,0.00,,2013-02-16 21:21:00,
2013-02-16 15:31:00,15.0,2.0,30.15,WNW,288,1.0,3.0,55,0.00,,,0.00,,2013-02-16 21:31:00,
2013-02-16 15:41:00,15.0,2.0,30.15,WNW,288,1.0,3.0,55,0.00,,,0.00,,2013-02-16 21:41:00,
2013-02-16 15:52:00,16.0,2.0,30.15,West,281,0.0,0.0,54,0.00,,,0.00,,2013-02-16 21:52:00,
2013-02-16 16:01:00,15.0,1.0,30.16,NNE,27,0.0,2.0,54,0.00,,,0.00,,2013-02-16 22:01:00,
2013-02-16 16:11:00,15.0,1.0,30.16,NNE,27,0.0,2.0,54,0.00,,,0.00,,2013-02-16 22:11:00,
2013-02-16 16:21:00,16.0,3.0,30.16,NNE,22,0.0,1.0,55,0.00,,,0.00,,2013-02-16 22:21:00,
2013-02-16 16:32:00,17.0,3.0,30.16,WNW,287,0.0,0.0,54,0.00,,,0.00,,2013-02-16 22:32:00,
2013-02-16 16:42:00,17.0,3.0,30.16,WNW,287,0.0,0.0,54,0.00,,,0.00,,2013-02-16 22:42:00,
2013-02-16 16:51:00,16.0,2.0,30.16,WNW,286,0.0,0.0,53,0.00,,,0.00,,2013-02-16 22:51:00,
2013-02-16 17:02:00,16.0,2.0,30.16,WNW,286,0.0,0.0,52,0.00,,,0.00,,2013-02-16 23:02:00,
2013-02-16 17:11:00,15.0,3.0,30.16,WNW,288,0.0,0.0,57,0.00,,,0.00,,2013-02-16 23:11:00,
2013-02-16 17:21:00,15.0,3.0,30.16,WNW,288,0.0,0.0,57,0.00,,,0.00,,2013-02-16 23:21:00,
2013-02-16 17:31:00,14.0,2.0,30.17,WNW,288,0.0,0.0,59,0.00,,,0.00,,2013-02-16 23:31:00,
2013-02-16 17:42:00,14.0,2.0,30.17,WNW,288,0.0,0.0,59,0.00,,,0.00,,2013-02-16 23:42:00,
2013-02-16 17:52:00,13.0,2.0,30.17,WNW,288,0.0,0.0,60,0.00,,,0.00,,2013-02-16 23:52:00,
2013-02-16 18:02:00,13.0,2.0,30.17,WNW,288,0.0,0.0,60,0.00,,,0.00,,2013-02-17 00:02:00,
2013-02-16 18:12:00,13.0,2.0,30.17,WNW,288,0.0,0.0,60,0.00,,,0.00,,2013-02-17 00:12:00,
2013-02-16 18:21:00,12.0,2.0,30.16,WNW,288,0.0,0.0,62,0.00,,,0.00,,2013-02-17 00:21:00,
2013-02-16 18:31:00,10.0,1.0,30.17,WNW,288,0.0,0.0,65,0.00,,,0.00,,2013-02-17 00:31:00,
2013-02-16 18:41:00,10.0,1.0,30.17,WNW,288,0.0,0.0,65,0.00,,,0.00,,2013-02-17 00:41:00,
2013-02-16 18:52:00,10.0,1.0,30.17,WNW,288,0.0,0.0,66,0.00,,,0.00,,2013-02-17 00:52:00,
2013-02-16 19:01:00,8.0,0.0,30.17,WNW,288,0.0,0.0,69,0.00,,,0.00,,2013-02-17 01:01:00,
2013-02-16 19:11:00,8.0,0.0,30.17,WNW,288,0.0,0.0,69,0.00,,,0.00,,2013-02-17 01:11:00,
2013-02-16 19:21:00,8.0,0.0,30.17,WNW,288,0.0,0.0,70,0.00,,,0.00,,2013-02-17 01:21:00,
2013-02-16 19:31:00,7.0,0.0,30.17,WNW,288,0.0,0.0,71,0.00,,,0.00,,2013-02-17 01:31:00,
2013-02-16 19:41:00,7.0,0.0,30.17,WNW,288,0.0,0.0,71,0.00,,,0.00,,2013-02-17 01:41:00,
2013-02-16 19:52:00,6.0,-1.0,30.17,WNW,288,0.0,0.0,71,0.00,,,0.00,,2013-02-17 01:52:00,
2013-02-16 20:01:00,6.0,-1.0,30.17,WNW,288,0.0,0.0,73,0.00,,,0.00,,2013-02-17 02:01:00,
2013-02-16 20:11:00,6.0,-1.0,30.17,WNW,288,0.0,0.0,73,0.00,,,0.00,,2013-02-17 02:11:00,
2013-02-16 20:21:00,5.0,-2.0,30.17,WNW,288,0.0,0.0,73,0.00,,,0.00,,2013-02-17 02:21:00,
2013-02-16 20:31:00,5.0,-1.0,30.17,WNW,288,0.0,0.0,74,0.00,,,0.00,,2013-02-17 02:31:00,
2013-02-16 20:41:00,5.0,-1.0,30.17,WNW,288,0.0,0.0,74,0.00,,,0.00,,2013-02-17 02:41:00,
2013-02-16 20:52:00,3.0,-3.0,30.17,WNW,288,0.0,0.0,76,0.00,,,0.00,,2013-02-17 02:52:00,
2013-02-16 21:02:00,2.0,-4.0,30.17,WNW,288,0.0,0.0,75,0.00,,,0.00,,2013-02-17 03:02:00,
2013-02-16 21:11:00,2.0,-4.0,30.17,WNW,288,0.0,0.0,75,0.00,,,0.00,,2013-02-17 03:11:00,
2013-02-16 21:21:00,1.0,-4.0,30.17,WNW,288,0.0,0.0,77,0.00,,,0.00,,2013-02-17 03:21:00,
2013-02-16 21:31:00,1.0,-4.0,30.17,WNW,288,0.0,0.0,77,0.00,,,0.00,,2013-02-17 03:31:00,
2013-02-16 21:42:00,1.0,-4.0,30.17,WNW,288,0.0,0.0,77,0.00,,,0.00,,2013-02-17 03:42:00,
2013-02-16 21:52:00,0.0,-5.0,30.17,WNW,288,0.0,0.0,77,0.00,,,0.00,,2013-02-17 03:52:00,
2013-02-16 22:01:00,0.0,-6.0,30.17,WNW,288,0.0,0.0,76,0.00,,,0.00,,2013-02-17 04:01:00,
2013-02-16 22:11:00,-1.0,-6.0,30.17,WNW,288,0.0,0.0,77,0.00,,,0.00,,2013-02-17 04:11:00,
2013-02-16 22:21:00,-1.0,-6.0,30.17,WNW,288,0.0,0.0,77,0.00,,,0.00,,2013-02-17 04:21:00,
2013-02-16 22:31:00,-1.0,-6.0,30.17,WNW,288,0.0,0.0,78,0.00,,,0.00,,2013-02-17 04:31:00,
2013-02-16 22:41:00,-1.0,-6.0,30.17,WNW,288,0.0,0.0,78,0.00,,,0.00,,2013-02-17 04:41:00,
2013-02-16 22:52:00,-1.0,-6.0,30.17,WNW,288,0.0,0.0,78,0.00,,,0.00,,2013-02-17 04:52:00,
2013-02-16 23:01:00,-2.0,-8.0,30.17,WNW,288,0.0,0.0,76,0.00,,,0.00,,2013-02-17 05:01:00,
2013-02-16 23:12:00,-4.0,-10.0,30.16,WNW,288,0.0,0.0,76,0.00,,,0.00,,2013-02-17 05:12:00,
2013-02-16 23:22:00,-4.0,-10.0,30.16,WNW,288,0.0,0.0,76,0.00,,,0.00,,2013-02-17 05:22:00,
2013-02-16 23:33:00,-4.0,-9.0,30.16,WNW,288,0.0,0.0,78,0.00,,,0.00,,2013-02-17 05:33:00,
2013-02-16 23:42:00,-4.0,-9.0,30.16,WNW,288,0.0,0.0,78,0.00,,,0.00,,2013-02-17 05:42:00,
2013-02-16 23:52:00,-4.0,-9.0,30.16,WNW,288,0.0,0.0,77,0.00,,,0.00,,2013-02-17 05:52:00,